| time (UTC) | temp C | wind direction | speed KPH | gust KPH | rain 1hr cm | rain 24hr cm | rain mn cm | humidity % | barometer mb |
| 20260508063603 | 8 | 100 | 0.0 | 3.2 | 0.00 | 0.03 | 0.00 | 99 | 1015.9 |
| 20260508062600 | 8 | 148 | 1.6 | 3.2 | 0.00 | 0.03 | 0.00 | 99 | 1015.8 |
| 20260508061616 | 8 | 102 | 1.6 | 3.2 | 0.00 | 0.03 | 0.00 | 99 | 1015.6 |
| 20260508060556 | 8 | 102 | 1.6 | 3.2 | 0.00 | 0.03 | 0.00 | 99 | 1015.5 |
| 20260508055557 | 8 | 102 | 0.0 | 3.2 | 0.00 | 0.03 | 0.00 | 99 | 1015.5 |
| 20260508054558 | 7 | 127 | 1.6 | 4.8 | 0.00 | 0.03 | 0.00 | 99 | 1015.4 |
| 20260508053558 | 7 | 121 | 1.6 | 3.2 | 0.00 | 0.03 | 0.00 | 99 | 1015.2 |
| 20260508052559 | 7 | 130 | 1.6 | 4.8 | 0.00 | 0.03 | 0.00 | 99 | 1015.2 |
| 20260508051639 | 7 | 124 | 3.2 | 4.8 | 0.00 | 0.03 | 0.00 | 99 | 1015.2 |
| 20260508050600 | 8 | 110 | 1.6 | 8.0 | 0.00 | 0.03 | 0.00 | 99 | 1015.0 |
| 20260508045559 | 8 | 96 | 0.0 | 3.2 | 0.00 | 0.03 | 0.00 | 99 | 1015.0 |
| 20260508044532 | 8 | 107 | 1.6 | 4.8 | 0.00 | 0.03 | 0.00 | 99 | 1014.9 |
| 20260508043532 | 8 | 113 | 0.0 | 1.6 | 0.00 | 0.03 | 0.00 | 99 | 1014.9 |
| 20260508042533 | 7 | 99 | 0.0 | 3.2 | 0.00 | 0.03 | 0.00 | 99 | 1014.7 |
| 20260508041533 | 7 | 0.0 | 0.0 | 0.00 | 0.03 | 0.00 | 99 | 1014.7 | |
| 20260508040553 | 7 | 0.0 | 0.0 | 0.00 | 0.03 | 0.00 | 99 | 1014.6 | |
| 20260508035534 | 8 | 93 | 0.0 | 1.6 | 0.00 | 0.03 | 0.00 | 99 | 1014.7 |
| 20260508034535 | 8 | 0.0 | 0.0 | 0.00 | 0.03 | 0.00 | 99 | 1014.6 | |
| 20260508033536 | 8 | 0.0 | 0.0 | 0.00 | 0.03 | 0.00 | 99 | 1014.5 | |
| 20260508032536 | 8 | 52 | 0.0 | 1.6 | 0.00 | 0.03 | 0.00 | 99 | 1014.5 |
| 20260508031536 | 8 | 51 | 0.0 | 3.2 | 0.00 | 0.03 | 0.00 | 99 | 1014.4 |
| 20260508030536 | 8 | 0.0 | 1.6 | 0.00 | 0.03 | 0.00 | 99 | 1014.4 | |
| 20260508025556 | 8 | 0.0 | 0.0 | 0.00 | 0.03 | 0.00 | 99 | 1014.6 | |
| 20260508024536 | 8 | 0.0 | 0.0 | 0.00 | 0.03 | 0.00 | 99 | 1014.4 | |
| 20260508023537 | 8 | 0.0 | 1.6 | 0.00 | 0.03 | 0.00 | 99 | 1014.4 | |
| 20260508022538 | 8 | 0.0 | 1.6 | 0.00 | 0.03 | 0.00 | 99 | 1014.6 | |
| 20260508021538 | 8 | 0.0 | 0.0 | 0.00 | 0.03 | 0.00 | 99 | 1014.6 | |
| 20260508020558 | 8 | 0.0 | 1.6 | 0.00 | 0.03 | 0.00 | 99 | 1014.6 | |
| 20260508015539 | 8 | 0.0 | 0.0 | 0.00 | 0.03 | 0.00 | 99 | 1014.7 | |
| 20260508014539 | 8 | 98 | 0.0 | 1.6 | 0.00 | 0.03 | 0.00 | 99 | 1014.7 |
| 20260508013540 | 8 | 0.0 | 0.0 | 0.00 | 0.03 | 0.00 | 99 | 1014.7 | |
| 20260508012540 | 8 | 0.0 | 0.0 | 0.00 | 0.03 | 0.00 | 99 | 1014.6 | |
| 20260508011541 | 8 | 0.0 | 0.0 | 0.00 | 0.03 | 0.00 | 99 | 1014.6 | |
| 20260508010603 | 8 | 0.0 | 0.0 | 0.00 | 0.03 | 0.00 | 99 | 1014.8 | |
| 20260508005541 | 8 | 0.0 | 0.0 | 0.00 | 0.03 | 0.00 | 99 | 1014.8 | |
| 20260508004542 | 8 | 74 | 0.0 | 1.6 | 0.00 | 0.03 | 0.00 | 99 | 1015.0 |
| 20260508003542 | 8 | 0.0 | 0.0 | 0.00 | 0.03 | 0.00 | 99 | 1015.0 | |
| 20260508002543 | 8 | 0.0 | 0.0 | 0.00 | 0.05 | 0.00 | 99 | 1015.0 | |
| 20260508001543 | 8 | 124 | 0.0 | 3.2 | 0.00 | 0.05 | 0.00 | 99 | 1015.0 |
| 20260508000543 | 8 | 111 | 0.0 | 1.6 | 0.00 | 0.05 | 0.00 | 99 | 1015.2 |
| 20260507235544 | 9 | 0.0 | 0.0 | 0.00 | 0.05 | 0.00 | 99 | 1015.1 | |
| 20260507234604 | 9 | 0.0 | 0.0 | 0.00 | 0.05 | 0.00 | 99 | 1015.2 | |
| 20260507233551 | 10 | 0.0 | 0.0 | 0.00 | 0.05 | 0.00 | 99 | 1015.3 | |
| 20260507232545 | 10 | 92 | 0.0 | 1.6 | 0.00 | 0.05 | 0.00 | 99 | 1015.3 |
| 20260507231545 | 10 | 0.0 | 0.0 | 0.00 | 0.05 | 0.00 | 99 | 1015.6 | |
| 20260507230546 | 10 | 0.0 | 0.0 | 0.00 | 0.05 | 0.00 | 99 | 1015.8 | |
| 20260507225547 | 10 | 0.0 | 0.0 | 0.00 | 0.05 | 0.00 | 99 | 1015.8 | |
| 20260507224607 | 10 | 100 | 0.0 | 1.6 | 0.00 | 0.05 | 0.00 | 99 | 1015.9 |
| 20260507223547 | 10 | 0.0 | 0.0 | 0.00 | 0.05 | 0.00 | 99 | 1015.8 | |
| 20260507222548 | 10 | 0.0 | 0.0 | 0.00 | 0.05 | 0.00 | 99 | 1015.8 | |
| 20260507221608 | 10 | 0.0 | 0.0 | 0.00 | 0.05 | 0.00 | 99 | 1015.7 | |
| 20260507220549 | 10 | 0.0 | 0.0 | 0.00 | 0.05 | 0.00 | 99 | 1015.8 | |
| 20260507215548 | 10 | 0.0 | 0.0 | 0.00 | 0.05 | 0.05 | 99 | 1015.6 | |
| 20260507214549 | 10 | 0.0 | 0.0 | 0.00 | 0.05 | 0.05 | 99 | 1015.5 | |
| 20260507213550 | 10 | 0.0 | 0.0 | 0.00 | 0.05 | 0.05 | 99 | 1015.5 | |
| 20260507212550 | 10 | 0.0 | 0.0 | 0.00 | 0.05 | 0.05 | 99 | 1015.5 | |
| 20260507211550 | 10 | 112 | 0.0 | 1.6 | 0.00 | 0.05 | 0.05 | 99 | 1015.4 |
| 20260507210551 | 10 | 114 | 1.6 | 3.2 | 0.00 | 0.05 | 0.05 | 99 | 1015.5 |
| 20260507205551 | 10 | 148 | 0.0 | 3.2 | 0.00 | 0.05 | 0.05 | 99 | 1015.6 |
| 20260507204552 | 10 | 126 | 0.0 | 1.6 | 0.00 | 0.05 | 0.05 | 97 | 1015.5 |
| 20260507203552 | 11 | 0.0 | 0.0 | 0.00 | 0.05 | 0.05 | 96 | 1015.4 | |
| 20260507202552 | 11 | 0.0 | 0.0 | 0.00 | 0.05 | 0.05 | 96 | 1015.2 | |
| 20260507201553 | 11 | 0.0 | 0.0 | 0.00 | 0.05 | 0.05 | 96 | 1015.2 | |
| 20260507200554 | 11 | 0.0 | 0.0 | 0.00 | 0.05 | 0.05 | 96 | 1015.2 | |
| 20260507195614 | 11 | 0.0 | 0.0 | 0.00 | 0.05 | 0.05 | 96 | 1015.1 | |
| 20260507194556 | 11 | 0.0 | 0.0 | 0.00 | 0.05 | 0.05 | 96 | 1015.0 | |
| 20260507174559 | 12 | 164 | 1.6 | 9.7 | 0.00 | 0.05 | 0.05 | 87 | 1013.9 |
| 20260507173601 | 12 | 97 | 1.6 | 4.8 | 0.00 | 0.05 | 0.05 | 86 | 1013.5 |
| 20260507172600 | 12 | 93 | 1.6 | 4.8 | 0.00 | 0.08 | 0.05 | 86 | 1013.5 |
| 20260507171601 | 12 | 133 | 1.6 | 4.8 | 0.00 | 0.08 | 0.05 | 86 | 1013.5 |
| 20260507170621 | 13 | 144 | 3.2 | 8.0 | 0.00 | 0.08 | 0.05 | 85 | 1013.3 |
| 20260507165601 | 13 | 119 | 1.6 | 8.0 | 0.00 | 0.08 | 0.05 | 83 | 1013.4 |
| 20260507164642 | 14 | 141 | 1.6 | 4.8 | 0.00 | 0.08 | 0.05 | 76 | 1013.2 |
| 20260507163626 | 13 | 53 | 1.6 | 8.0 | 0.00 | 0.08 | 0.05 | 74 | 1013.1 |
| 20260507162607 | 14 | 66 | 1.6 | 4.8 | 0.00 | 0.08 | 0.05 | 74 | 1013.0 |
| 20260507161629 | 14 | 49 | 1.6 | 8.0 | 0.00 | 0.08 | 0.05 | 75 | 1013.0 |
| 20260507160640 | 13 | 38 | 3.2 | 8.0 | 0.00 | 0.08 | 0.05 | 75 | 1013.1 |
| 20260507155604 | 14 | 61 | 1.6 | 8.0 | 0.00 | 0.08 | 0.05 | 74 | 1012.9 |
| 20260507154532 | 14 | 33 | 3.2 | 8.0 | 0.00 | 0.08 | 0.05 | 76 | 1012.9 |
| 20260507153546 | 14 | 61 | 1.6 | 3.2 | 0.00 | 0.08 | 0.05 | 79 | 1012.9 |
| 20260507152553 | 13 | 65 | 1.6 | 8.0 | 0.00 | 0.08 | 0.05 | 81 | 1012.9 |
| 20260507151554 | 14 | 131 | 3.2 | 8.0 | 0.00 | 0.08 | 0.05 | 75 | 1012.8 |
| 20260507150534 | 13 | 72 | 0.0 | 1.6 | 0.00 | 0.08 | 0.05 | 78 | 1012.8 |
| 20260507145534 | 14 | 190 | 3.2 | 8.0 | 0.00 | 0.08 | 0.05 | 75 | 1012.6 |
| 20260507144534 | 15 | 24 | 3.2 | 9.7 | 0.00 | 0.08 | 0.05 | 69 | 1012.7 |
| 20260507143535 | 15 | 7 | 3.2 | 11.3 | 0.00 | 0.08 | 0.05 | 68 | 1012.6 |
| 20260507142535 | 14 | 31 | 3.2 | 12.9 | 0.00 | 0.08 | 0.05 | 70 | 1012.7 |
| 20260507141541 | 14 | 10 | 6.4 | 12.9 | 0.00 | 0.08 | 0.05 | 69 | 1012.6 |
| 20260507140536 | 15 | 8 | 4.8 | 11.3 | 0.00 | 0.08 | 0.05 | 68 | 1012.7 |
| 20260507135537 | 15 | 345 | 6.4 | 14.5 | 0.00 | 0.08 | 0.05 | 66 | 1012.6 |
| 20260507134537 | 16 | 349 | 4.8 | 11.3 | 0.00 | 0.08 | 0.05 | 62 | 1012.6 |
| 20260507133537 | 15 | 338 | 3.2 | 11.3 | 0.00 | 0.08 | 0.05 | 64 | 1012.7 |
| 20260507132538 | 15 | 317 | 3.2 | 12.9 | 0.00 | 0.08 | 0.05 | 64 | 1012.8 |
| 20260507131558 | 15 | 354 | 3.2 | 11.3 | 0.00 | 0.08 | 0.05 | 64 | 1012.8 |
| 20260507130539 | 15 | 353 | 3.2 | 12.9 | 0.00 | 0.08 | 0.05 | 64 | 1012.8 |
| 20260507125620 | 16 | 9 | 3.2 | 11.3 | 0.00 | 0.08 | 0.05 | 62 | 1012.7 |
| 20260507124540 | 15 | 5 | 4.8 | 14.5 | 0.00 | 0.08 | 0.05 | 64 | 1012.6 |
| 20260507123540 | 16 | 335 | 4.8 | 12.9 | 0.00 | 0.08 | 0.05 | 63 | 1012.7 |
| 20260507122541 | 16 | 271 | 3.2 | 12.9 | 0.00 | 0.08 | 0.05 | 61 | 1012.6 |
| 20260507121541 | 16 | 303 | 6.4 | 17.7 | 0.00 | 0.08 | 0.05 | 62 | 1012.7 |
| 20260507120541 | 16 | 7 | 4.8 | 14.5 | 0.00 | 0.08 | 0.05 | 62 | 1012.6 |
| 20260507115541 | 16 | 348 | 4.8 | 17.7 | 0.00 | 0.08 | 0.05 | 63 | 1012.5 |
| 20260507114542 | 16 | 267 | 4.8 | 20.9 | 0.00 | 0.08 | 0.05 | 62 | 1012.7 |
| 20260507113542 | 15 | 243 | 4.8 | 17.7 | 0.00 | 0.08 | 0.05 | 64 | 1012.8 |
| 20260507112544 | 15 | 308 | 6.4 | 17.7 | 0.00 | 0.08 | 0.05 | 66 | 1012.8 |
| 20260507111544 | 15 | 265 | 4.8 | 17.7 | 0.00 | 0.08 | 0.05 | 66 | 1012.6 |
| 20260507110544 | 15 | 282 | 6.4 | 20.9 | 0.00 | 0.08 | 0.05 | 65 | 1012.8 |
| 20260507105544 | 15 | 190 | 6.4 | 17.7 | 0.00 | 0.08 | 0.05 | 65 | 1012.8 |
| 20260507104545 | 15 | 266 | 4.8 | 12.9 | 0.00 | 0.08 | 0.05 | 65 | 1012.8 |
| 20260507103545 | 15 | 275 | 4.8 | 17.7 | 0.00 | 0.08 | 0.05 | 66 | 1012.8 |
| 20260507102545 | 14 | 308 | 8.0 | 17.7 | 0.00 | 0.08 | 0.05 | 68 | 1012.8 |
| 20260507101546 | 14 | 271 | 6.4 | 14.5 | 0.00 | 0.08 | 0.05 | 67 | 1012.9 |
| 20260507100547 | 15 | 240 | 6.4 | 16.1 | 0.00 | 0.08 | 0.05 | 66 | 1012.7 |
| 20260507095547 | 15 | 205 | 4.8 | 14.5 | 0.00 | 0.08 | 0.05 | 67 | 1012.6 |
| 20260507094547 | 15 | 238 | 4.8 | 14.5 | 0.00 | 0.08 | 0.05 | 70 | 1012.6 |
| 20260507093547 | 15 | 297 | 6.4 | 17.7 | 0.00 | 0.08 | 0.05 | 70 | 1012.6 |
| 20260507092548 | 15 | 18 | 3.2 | 11.3 | 0.00 | 0.08 | 0.05 | 72 | 1012.6 |
| 20260507091548 | 14 | 250 | 6.4 | 14.5 | 0.00 | 0.08 | 0.05 | 72 | 1012.6 |
| 20260507090610 | 14 | 242 | 3.2 | 11.3 | 0.00 | 0.08 | 0.05 | 74 | 1012.5 |
| 20260507085549 | 13 | 99 | 1.6 | 9.7 | 0.00 | 0.08 | 0.05 | 77 | 1012.4 |
| 20260507084552 | 13 | 179 | 3.2 | 14.5 | 0.00 | 0.08 | 0.05 | 75 | 1012.2 |
| 20260507083550 | 13 | 268 | 3.2 | 12.9 | 0.00 | 0.08 | 0.05 | 78 | 1012.3 |
| 20260507082551 | 12 | 1 | 3.2 | 9.7 | 0.00 | 0.08 | 0.05 | 83 | 1012.3 |
| 20260507081551 | 13 | 160 | 3.2 | 9.7 | 0.00 | 0.08 | 0.05 | 83 | 1012.1 |
| 20260507080551 | 12 | 169 | 1.6 | 4.8 | 0.00 | 0.08 | 0.05 | 87 | 1012.2 |
| 20260507075551 | 11 | 133 | 3.2 | 8.0 | 0.00 | 0.08 | 0.05 | 90 | 1012.3 |
| 20260507074553 | 11 | 169 | 3.2 | 4.8 | 0.00 | 0.08 | 0.05 | 92 | 1012.3 |
| 20260507073552 | 10 | 135 | 1.6 | 3.2 | 0.03 | 0.08 | 0.05 | 94 | 1012.3 |
| 20260507072553 | 10 | 101 | 1.6 | 3.2 | 0.03 | 0.08 | 0.05 | 95 | 1012.3 |
| 20260507071554 | 10 | 112 | 0.0 | 3.2 | 0.03 | 0.08 | 0.05 | 96 | 1012.0 |
| 20260507070554 | 10 | 187 | 1.6 | 4.8 | 0.03 | 0.08 | 0.05 | 96 | 1012.1 |
| 20260507065615 | 9 | 197 | 3.2 | 8.0 | 0.03 | 0.08 | 0.05 | 96 | 1012.1 |
| 20260507064554 | 9 | 182 | 1.6 | 8.0 | 0.03 | 0.08 | 0.05 | 95 | 1012.0 |